Flag for Romania Weather past 2 weeks in Iasi, Romania

Now
37 °F

Clear.


Feels Like: 37 °F
Forecast: 37 / 42 °F
Wind: 1 mph from North

Location: Iasi Airport

Current Time: Apr 2, 2015 at 6:29:45 AM

Latest Report: Apr 2, 2015 at 5:00 AM


Visibility: 10 mi

Pressure: 29.74 "Hg

Humidity: 70%

Dew point: 28 °F

Location of IasiLocation

Historic Weather in Iasi — Graph

°F

Iasi temperature yesterday

Maximum temperature yesterday: 61 °F (at 3:00 PM)
Minimum temperature yesterday: 41 °F (at 11:00 PM)
Average temperature yesterday: 50 °F

Past Weeks' High & Low Weather Summary

 TemperatureHumidityPressure
High63 °F (Mar 25, 3:30 PM)100% (Mar 18, 9:30 AM)30.45 "Hg (Mar 18, 9:30 AM)
Low30 °F (Mar 24, 3:00 AM)24% (Mar 23, 4:30 PM)29.45 "Hg (Apr 1, 4:00 AM)
Average45 °F72%29.95 "Hg
* Reported Mar 18 4:00 AM — Apr 2 5:00 AM, Iasi, Weather by CustomWeather, © 2015

Note: Actual official high and low records may vary slightly from our data, if they occured in-between our weather recording intervals... More about our weather records

Advertising

Iasi weather history for previous 24 hours

 ConditionsComfort  
Time TempWeatherWind HumidityBarometerVisibility
5:00 AM
Thu, Apr 2
37 °FClear.1 mph70%29.74 "Hg10 mi
4:00 AM37 °FPassing clouds.5 mph70%29.74 "HgN/A
3:00 AM37 °FClear.No wind75%29.74 "Hg10 mi
2:00 AM37 °FClear.5 mph75%29.74 "Hg10 mi
1:00 AM39 °FClear.7 mph70%29.74 "Hg10 mi
12:00 AM41 °FClear.3 mph66%29.74 "Hg10 mi
11:00 PM
Wed, Apr 1
41 °FPassing clouds.3 mph61%29.71 "HgN/A
10:00 PM43 °FClear.6 mph61%29.71 "Hg10 mi
9:30 PM43 °FPassing clouds.9 mph61%29.71 "HgN/A
9:00 PM43 °FClear.10 mph61%29.71 "Hg10 mi
8:30 PM45 °FScattered clouds.13 mph57%29.68 "HgN/A
8:00 PM46 °FScattered clouds.15 mph53%29.65 "HgN/A
7:30 PM52 °FSunny.14 mph41%29.62 "Hg10 mi
7:00 PM54 °FSunny.20 mph35%29.62 "Hg10 mi
6:30 PM54 °FSunny.20 mph35%29.59 "Hg10 mi
6:00 PM55 °FPassing clouds.17 mph31%29.59 "HgN/A
5:30 PM59 °FSunny.17 mph27%29.56 "Hg10 mi
5:00 PM59 °FPassing clouds.18 mph27%29.56 "HgN/A
4:30 PM59 °FPassing clouds.18 mph29%29.53 "HgN/A
4:00 PM59 °FPassing clouds.16 mph31%29.53 "HgN/A
3:30 PM59 °FPassing clouds.17 mph31%29.53 "HgN/A
3:00 PM61 °FPassing clouds.16 mph31%29.53 "HgN/A
2:30 PM59 °FPassing clouds.7 mph42%29.53 "HgN/A
2:00 PM57 °FPassing clouds.8 mph48%29.56 "HgN/A
1:30 PM55 °FPassing clouds.7 mph59%29.56 "HgN/A
1:00 PM55 °FPassing clouds.5 mph59%29.56 "HgN/A
12:30 PM54 °FPassing clouds.5 mph63%29.56 "HgN/A
12:00 PM50 °FPassing clouds.3 mph76%29.56 "HgN/A
10:30 AM43 °FSprinkles. Partly sunny.3 mph100%29.56 "HgN/A
10:00 AM45 °FLight rain. Overcast.13 mph87%29.59 "HgN/A
9:30 AM43 °FLight rain. Scattered clouds.15 mph93%29.56 "HgN/A
9:00 AM43 °FLight rain. Partly sunny.17 mph87%29.53 "HgN/A
8:30 AM45 °FLight rain. Partly sunny.18 mph87%29.53 "HgN/A
8:00 AM48 °FSunny.2 mph66%29.50 "Hg10 mi
7:30 AM48 °FClear.1 mph66%29.50 "Hg10 mi
7:00 AM48 °FPassing clouds.3 mph66%29.50 "HgN/A
6:30 AM48 °FClear.2 mph66%29.50 "Hg10 mi
Weather by CustomWeather, © 2015

See weather overviewHow to use our weather pages